TimePST,TemperatureF,Dew PointF,Humidity,Sea Level PressureIn,VisibilityMPH,Wind Direction,Wind SpeedMPH,Gust SpeedMPH,PrecipitationIn,Events,Conditions,WindDirDegrees,DateUTC
12:52 AM,53.1,10.9,19,30.25,10.0,North,6.9,-,N/A,,Clear,360,2014-01-13 08:52:00
1:52 AM,57.0,10.0,15,30.26,10.0,NNW,16.1,-,N/A,,Clear,340,2014-01-13 09:52:00
2:52 AM,55.9,10.0,16,30.26,10.0,North,17.3,-,N/A,,Clear,350,2014-01-13 10:52:00
3:52 AM,52.0,10.9,19,30.28,10.0,WSW,5.8,-,N/A,,Clear,240,2014-01-13 11:52:00
4:52 AM,55.9,10.9,17,30.29,10.0,NNW,12.7,-,N/A,,Clear,330,2014-01-13 12:52:00
5:52 AM,53.1,12.0,20,30.31,10.0,NNE,6.9,-,N/A,,Clear,20,2014-01-13 13:52:00
6:52 AM,52.0,12.0,20,30.33,10.0,North,9.2,-,N/A,,Clear,10,2014-01-13 14:52:00
7:52 AM,57.9,12.9,17,30.36,10.0,North,13.8,-,N/A,,Clear,350,2014-01-13 15:52:00
8:52 AM,62.1,15.1,16,30.38,10.0,North,13.8,-,N/A,,Clear,350,2014-01-13 16:52:00
9:52 AM,66.0,15.1,14,30.39,10.0,North,19.6,24.2,N/A,,Clear,360,2014-01-13 17:52:00
10:52 AM,68.0,16.0,14,30.37,10.0,North,17.3,-,N/A,,Clear,350,2014-01-13 18:52:00
11:52 AM,70.0,16.0,13,30.34,10.0,North,19.6,-,N/A,,Clear,360,2014-01-13 19:52:00
12:52 PM,72.0,17.1,12,30.31,10.0,North,16.1,32.2,N/A,,Clear,350,2014-01-13 20:52:00
1:52 PM,73.0,17.1,12,30.29,10.0,NNW,17.3,24.2,N/A,,Clear,340,2014-01-13 21:52:00
2:52 PM,73.0,17.1,12,30.28,10.0,North,15.0,-,N/A,,Clear,350,2014-01-13 22:52:00
3:52 PM,73.0,18.0,12,30.27,10.0,North,12.7,-,N/A,,Clear,350,2014-01-13 23:52:00
4:52 PM,68.0,17.1,14,30.27,10.0,NNW,12.7,-,N/A,,Clear,330,2014-01-14 00:52:00
5:52 PM,60.1,18.0,20,30.28,10.0,East,3.5,-,N/A,,Clear,100,2014-01-14 01:52:00
6:52 PM,61.0,17.1,18,30.28,10.0,NNE,9.2,-,N/A,,Clear,30,2014-01-14 02:52:00
7:52 PM,57.9,16.0,19,30.29,10.0,North,13.8,-,N/A,,Clear,10,2014-01-14 03:52:00
8:52 PM,55.9,17.1,22,30.30,10.0,North,11.5,-,N/A,,Clear,10,2014-01-14 04:52:00
9:52 PM,57.0,18.0,22,30.31,10.0,North,10.4,-,N/A,,Clear,360,2014-01-14 05:52:00
10:52 PM,57.0,19.0,23,30.30,10.0,NNW,9.2,19.6,N/A,,Clear,340,2014-01-14 06:52:00
11:52 PM,57.9,18.0,21,30.29,10.0,North,16.1,-,N/A,,Clear,350,2014-01-14 07:52:00